WetterOnline ( https://www.wetteronline.ch )

Wetter aktuell Marnitz

Aktuelles Wetter: Marnitz (87m)

6-stündlich | Neueste Meldungen
Ortszeit Temperatur Wetter
So, 25.08. 8:00 17.3° C bedeckt
So, 25.08. 2:00 14.8° C wolkenlos
Sa, 24.08. 20:00 25.2° C wolkenlos
Sa, 24.08. 14:00 28.4° C leicht bewölkt
Sa, 24.08. 8:00 17.2° C leicht bewölkt
Sa, 24.08. 2:00 13.6° C wolkig
Fr, 23.08. 20:00 24.1° C wolkig
Fr, 23.08. 14:00 27.1° C leicht bewölkt
Ortszeit Temperatur Wetter
So, 25.08. 8:00 17.3° C bedeckt
So, 25.08. 7:50 17.3° C bedeckt
So, 25.08. 7:40 17.0° C bedeckt
So, 25.08. 7:30 16.4° C bedeckt
So, 25.08. 7:20 16.4° C bedeckt
So, 25.08. 7:10 16.2° C bedeckt
So, 25.08. 7:00 15.6° C bedeckt
So, 25.08. 6:30 14.7° C bedeckt
So, 25.08. 6:00 14.2° C wolkig
So, 25.08. 5:30 13.5° C wolkenlos
So, 25.08. 5:00 13.8° C leicht bewölkt
Ortszeit Relative Feuchte Sichtweite
So, 25.08. 8:00 79% 24 km
So, 25.08. 2:00 86% 23 km
Sa, 24.08. 20:00 39% 50 km
Sa, 24.08. 14:00 34% 50 km
Sa, 24.08. 8:00 72% 19 km
Sa, 24.08. 2:00 85% 24 km
Fr, 23.08. 20:00 40% 50 km
Fr, 23.08. 14:00 28% 45 km
Ortszeit Relative Feuchte Sichtweite
So, 25.08. 8:00 79% 24 km
So, 25.08. 7:50 79% -
So, 25.08. 7:40 81% -
So, 25.08. 7:30 82% 21 km
So, 25.08. 7:20 82% -
So, 25.08. 7:10 84% -
So, 25.08. 7:00 86% 18 km
So, 25.08. 6:30 91% 14 km
So, 25.08. 6:00 92% 14 km
So, 25.08. 5:30 92% 12 km
So, 25.08. 5:00 91% 15 km
Ortszeit Niederschlagsmenge Niederschlagsart
So, 25.08. 8:00 0.0 l/m2 in 12 Std. -
So, 25.08. 2:00 0.0 l/m2 in 6 Std. -
Sa, 24.08. 20:00 0.0 l/m2 in 12 Std. -
Sa, 24.08. 14:00 0.0 l/m2 in 6 Std. -
Sa, 24.08. 8:00 0.0 l/m2 in 12 Std. -
Sa, 24.08. 2:00 0.0 l/m2 in 6 Std. -
Fr, 23.08. 20:00 0.0 l/m2 in 12 Std. -
Fr, 23.08. 14:00 0.0 l/m2 in 6 Std. -
Ortszeit Niederschlagsmenge Niederschlagsart
So, 25.08. 8:00 0.0 l/m2 in 1 Std. -
So, 25.08. 7:50 keine Meldung -
So, 25.08. 7:40 keine Meldung -
So, 25.08. 7:30 0.0 l/m2 in 1 Std. -
So, 25.08. 7:20 keine Meldung -
So, 25.08. 7:10 keine Meldung -
So, 25.08. 7:00 0.0 l/m2 in 1 Std. -
So, 25.08. 6:30 0.0 l/m2 in 1 Std. -
So, 25.08. 6:00 0.0 l/m2 in 1 Std. -
So, 25.08. 5:30 0.0 l/m2 in 1 Std. -
So, 25.08. 5:00 0.0 l/m2 in 1 Std. -
Ortszeit Stärke Spitze Richtung
km/h Bft. km/h Grad Sektor
So, 25.08. 8:00 0 0 4 - -
So, 25.08. 2:00 2 1 22 40° NO
Sa, 24.08. 20:00 7 2 29 110° O
Sa, 24.08. 14:00 11 2 32 120° SO
Sa, 24.08. 8:00 2 1 6 110° O
Sa, 24.08. 2:00 4 1 18 10° N
Fr, 23.08. 20:00 6 1 19 20° N
Fr, 23.08. 14:00 7 2 22 230° SW
Ortszeit Stärke Spitze Richtung
km/h Bft. km/h Grad Sektor
So, 25.08. 8:00 0 0 4 - -
So, 25.08. 7:50 2 1 - 80° O
So, 25.08. 7:40 0 0 - 310° NW
So, 25.08. 7:30 0 0 4 - -
So, 25.08. 7:20 0 0 - 340° N
So, 25.08. 7:10 2 1 - 300° NW
So, 25.08. 7:00 2 1 4 360° N
So, 25.08. 6:30 0 0 4 - -
So, 25.08. 6:00 4 1 4 330° NW
So, 25.08. 5:30 4 1 4 350° N
So, 25.08. 5:00 4 1 4 320° NW
Ortszeit Untergrenze Bedeckung Gattung
total tief tief mittel hoch
So, 25.08. 8:00 1440 m 8/8 8/8 - - -
So, 25.08. 2:00 - 0/8 0/8 - - -
Sa, 24.08. 20:00 - 0/8 0/8 - - -
Sa, 24.08. 14:00 10500 m 5/8 0/8 - - -
Sa, 24.08. 8:00 9000 m 6/8 0/8 - - -
Sa, 24.08. 2:00 9000 m 8/8 0/8 - - -
Fr, 23.08. 20:00 9000 m 8/8 0/8 - - -
Fr, 23.08. 14:00 9000 m 3/8 0/8 - - -
Ortszeit Bedeckungsgrad in Achtel und Wolkenuntergrenze
So, 25.08. 8:00 1(1440m) 8(1800m)
So, 25.08. 7:50 1(1440m) 8(1800m)
So, 25.08. 7:40 8(1800m)
So, 25.08. 7:30 8(1800m)
So, 25.08. 7:20 8(1800m)
So, 25.08. 7:10 8(1800m)
So, 25.08. 7:00 8(1500m)
So, 25.08. 6:30 8(1500m)
So, 25.08. 6:00 5(1500m)
So, 25.08. 5:30 keine Wolken
So, 25.08. 5:00 3(1500m)
Ortszeit Luftdruck NN (hPa) Tendenz (hPa in 3 Std.)
So, 25.08. 8:00 1022 - 0,3
So, 25.08. 2:00 1023 0,0
Sa, 24.08. 20:00 1022 - 0,7
Sa, 24.08. 14:00 1024 - 1,3
Sa, 24.08. 8:00 1026 + 0,2
Sa, 24.08. 2:00 1026 - 0,1
Fr, 23.08. 20:00 1025 - 0,3
Fr, 23.08. 14:00 1026 - 0,9
Ortszeit Luftdruck NN (hPa) Tendenz (hPa in 3 Std.)
So, 25.08. 8:00 1022 - 0,3
So, 25.08. 7:50 1022 keine Meldung
So, 25.08. 7:40 1022 keine Meldung
So, 25.08. 7:30 1022 - 0,4
So, 25.08. 7:20 1022 keine Meldung
So, 25.08. 7:10 1022 keine Meldung
So, 25.08. 7:00 1022 - 0,5
So, 25.08. 6:30 1022 - 0,6
So, 25.08. 6:00 1022 - 0,6
So, 25.08. 5:30 1022 - 0,7
So, 25.08. 5:00 1022 - 0,7
Ortszeit Schneehöhe (cm)
So, 25.08. 8:00 -
So, 25.08. 2:00 -
Sa, 24.08. 20:00 -
Sa, 24.08. 14:00 -
Sa, 24.08. 8:00 -
Sa, 24.08. 2:00 -
Fr, 23.08. 20:00 -
Fr, 23.08. 14:00 -
Ortszeit Schneehöhe (cm)
So, 25.08. 8:00 -
So, 25.08. 7:50 -
So, 25.08. 7:40 -
So, 25.08. 7:30 -
So, 25.08. 7:20 -
So, 25.08. 7:10 -
So, 25.08. 7:00 -
So, 25.08. 6:30 -
So, 25.08. 6:00 -
So, 25.08. 5:30 -
So, 25.08. 5:00 -
Link zu dieser Seite / Seite empfehlen

Das Wetter in ...